x

9439040 - Astoria, Or (asto3) Weather Station

9:54 - Sun 24th May 2015 All times are PDT. -7 hours from GMT.

  • Wind
    2mph, 7mph gusts
  • Sea Temp 60°f
  • Aire Temp 54°f
  • Sea Pressure 1018.7mb
  • 9439040 - Astoria, Or
  • 9439040 - Astoria, Or

More Historic Weather Station data

Upgrade to MSW Pro to gain access to the past 30 days of data for over 8000 Wavebouys and Weather Stations around the globe.

Join Pro

Comparision Forecast

View Surf forecast
   
dom 05/24 9:54 2 7 mph 1018.7mb 60f 54f
9:48 1 5 mph 1018.6mb 60f 54f
9:42 2 6 mph 1018.7mb 60f 54f
9:36 1 5 mph 1018.6mb 60f 54f
9:30 2 7 mph 1018.5mb 60f 54f
9:24 6 8 mph 1018.5mb 60f 54f
9:18 5 6 mph 1018.5mb 60f 54f
9:12 2 3 mph 1018.5mb 60f 54f
9:06 3 6 mph 1018.5mb 60f 54f
9:00 3 6 mph 1018.5mb 60f 54f
8:54 3 5 mph 1018.4mb 60f 54f
8:48 2 5 mph 1018.5mb 60f 54f
8:42 3 5 mph 1018.5mb 60f 54f
8:36 3 7 mph 1018.5mb 60f 54f
8:30 6 9 mph 1018.5mb 60f 54f
8:24 6 11 mph 1018.6mb 60f 54f
8:18 6 8 mph 1018.6mb 60f 54f
8:12 6 11 mph 1018.6mb 60f 54f
8:06 10 13 mph 1018.6mb 60f 54f
8:00 6 8 mph 1018.7mb 60f 54f
7:54 1 8 mph 1018.7mb 60f 54f
7:48 7 11 mph 1018.8mb 60f 54f
7:42 5 8 mph 1018.8mb 60f 55f
7:36 2 8 mph 1018.8mb 60f 55f
7:30 2 7 mph 1018.8mb 60f 55f
7:24 1 5 mph 1018.8mb 60f 55f
7:18 1 6 mph 1018.8mb 60f 55f
7:12 1 3 mph 1018.8mb 60f 55f
7:06  -  3 mph 1018.9mb 60f 55f
7:00  -  5 mph 1018.9mb 60f 55f
6:54 1 8 mph 1019mb 60f 55f
6:48 2 7 mph 1018.9mb 60f 55f
6:42 1 5 mph 1019mb 60f 54f
6:36 1 3 mph 1019mb 60f 55f
6:30 1 6 mph 1019.1mb 60f 54f
6:24 1 3 mph 1019.1mb 60f 54f
6:18 1 6 mph 1019.1mb 60f 55f
6:12  -  5 mph 1019.2mb 60f 55f
6:06 1 6 mph 1019.2mb 60f 55f
6:00 1 5 mph 1019.3mb 60f 55f
5:54 1 5 mph 1019.4mb 60f 55f
5:48 1 6 mph 1019.4mb 60f 55f
5:42 1 3 mph 1019.4mb 60f 55f
5:36 2 6 mph 1019.4mb 60f 56f
5:30 2 6 mph 1019.4mb 60f 56f
5:24 1 5 mph 1019.5mb 60f 56f
5:18 1 3 mph 1019.5mb 60f 55f
5:12 2 5 mph 1019.5mb 60f 56f
5:06 2 6 mph 1019.5mb 60f 55f
5:00 1 7 mph 1019.6mb 60f 55f
4:54 2 6 mph 1019.7mb 60f 55f
4:48 2 6 mph 1019.8mb 60f 55f
4:42 2 5 mph 1019.8mb 60f 55f
4:36 1 7 mph 1019.9mb 60f 56f
4:30 2 6 mph 1019.9mb 60f 56f
4:24 2 7 mph 1020mb 60f 56f
4:18 1 5 mph 1020.1mb 60f 56f
4:12 2 7 mph 1020.1mb 60f 56f
4:06 1 3 mph 1020.2mb 60f 56f
4:00  -  7 mph 1020.2mb 60f 56f
3:54  -  7 mph 1020.3mb 60f 56f
3:48 2 6 mph 1020.3mb 60f 56f
3:42 2 7 mph 1020.4mb 61f 56f
3:36 2 8 mph 1020.4mb 61f 56f
3:30 1 8 mph 1020.4mb 61f 56f
3:24 1 7 mph 1020.5mb 60f 56f
3:18 2 8 mph 1020.5mb 61f 56f
3:12 1 6 mph 1020.5mb 61f 56f
3:06 2 7 mph 1020.6mb 60f 56f
3:00 3 8 mph 1020.6mb 60f 56f
2:54 1 9 mph 1020.7mb 60f 56f
2:48 2 11 mph 1020.7mb 60f 56f
2:42 3 9 mph 1020.8mb 60f 56f
2:36 3 8 mph 1020.8mb 60f 56f
2:30 2 7 mph 1020.9mb 60f 56f
2:24 5 8 mph 1020.9mb 60f 56f
2:18 3 7 mph 1020.9mb 60f 56f
2:12 2 5 mph 1021mb 60f 56f
2:06 1 8 mph 1021.1mb 60f 56f
2:00 2 7 mph 1021.1mb 60f 56f
1:54 1 5 mph 1021.2mb 60f 56f
1:48 2 7 mph 1021.2mb 60f 56f
1:42 5 7 mph 1021.2mb 60f 55f
1:36 1 5 mph 1021.3mb 60f 56f
1:30 1 3 mph 1021.3mb 60f 55f
1:24 1 5 mph 1021.3mb 60f 55f
1:18 2 5 mph 1021.3mb 60f 55f
1:12 2 7 mph 1021.4mb 60f 55f
1:06 5 7 mph 1021.4mb 60f 54f
1:00 3 6 mph 1021.4mb 60f 55f
12:54 1 5 mph 1021.5mb 60f 55f
12:48 1 6 mph 1021.5mb 60f 55f
12:42 1 3 mph 1021.6mb 60f 55f
12:36  -  7 mph 1021.6mb 60f 54f
12:30 3 7 mph 1021.7mb 60f 53f
12:24 2 7 mph 1021.7mb 60f 54f
12:18 2 7 mph 1021.8mb 60f 54f
12:12 6 11 mph 1021.8mb 60f 53f
12:06 3 10 mph 1021.9mb 60f 54f
12:00 2 7 mph 1022mb 60f 54f
11:54 2 7 mph 1022mb 60f 54f
11:48 1 6 mph 1022mb 60f 55f
11:42 3 6 mph 1022mb 60f 54f
11:36 3 6 mph 1022mb 60f 54f
11:30 1 6 mph 1022mb 60f 55f
11:24 1 6 mph 1022mb 60f 54f
11:18 3 7 mph 1022mb 60f 54f
11:12 3 8 mph 1022mb 60f 54f
11:06 3 6 mph 1022mb 60f 54f
11:00 2 6 mph 1022.1mb 60f 54f
10:54 2 6 mph 1022mb 60f 54f
10:48 1 7 mph 1022mb 60f 54f
10:42 5 10 mph 1022mb 60f 53f
10:36 8 10 mph 1022.1mb 60f 53f
10:30 2 5 mph 1022.1mb 60f 54f
10:24 2 8 mph 1022.1mb 60f 54f
10:18 5 7 mph 1022.1mb 60f 53f
10:12 2 9 mph 1022.1mb 60f 54f
10:06 3 8 mph 1022.1mb 60f 54f
10:00 1 3 mph 1022.2mb 60f 55f
9:54 1 6 mph 1022.1mb 60f 54f
9:48 1 5 mph 1022.2mb 60f 54f
9:42  -  6 mph 1022.2mb 60f 54f
9:36 1 5 mph 1022.2mb 60f 54f
9:30 1 6 mph 1022.2mb 60f 54f
9:24 2 10 mph 1022.2mb 60f 53f
9:18 6 9 mph 1022.3mb 60f 53f
9:12 6 8 mph 1022.3mb 60f 53f
9:06 5 7 mph 1022.3mb 60f 53f
9:00 2 6 mph 1022.3mb 60f 53f
8:54  -  7 mph 1022.3mb 60f 53f
8:48 1 3 mph 1022.2mb 60f 53f
8:42 2 5 mph 1022.2mb 60f 53f
8:36  -  3 mph 1022.2mb 60f 53f
8:30 2 5 mph 1022.2mb 60f 53f
8:24 2 6 mph 1022.2mb 60f 52f
8:18 5 6 mph 1022.2mb 60f 52f
8:12 5 6 mph 1022.3mb 60f 52f
8:06 3 5 mph 1022.3mb 60f 52f
8:00 3 5 mph 1022.4mb 60f 52f
7:54 5 6 mph 1022.4mb 60f 52f
7:48 3 5 mph 1022.4mb 60f 52f
7:42 5 6 mph 1022.4mb 60f 52f
7:36 2 5 mph 1022.4mb 60f 52f
7:30 1 5 mph 1022.4mb 60f 52f
7:24 3 6 mph 1022.4mb 60f 52f
7:18 2 5 mph 1022.5mb 60f 52f
7:12 3 5 mph 1022.5mb 60f 51f
7:06 2 3 mph 1022.4mb 60f 51f
7:00 2 3 mph 1022.5mb 60f 51f
6:54 2 6 mph 1022.5mb 60f 51f
6:48 5 6 mph 1022.5mb 60f 51f
6:42 5 7 mph 1022.5mb 60f 51f
6:36 6 9 mph 1022.6mb 60f 51f
6:30 8 10 mph 1022.5mb 60f 51f
6:24 6 8 mph 1022.4mb 60f 52f
6:18 5 8 mph 1022.4mb 60f 53f
6:12 3 6 mph 1022.3mb 60f 52f
6:06 5 6 mph 1022.3mb 60f 52f
6:00 3 6 mph 1022.3mb 60f 52f
5:54 2 3 mph 1022.2mb 60f 52f
5:48 2 3 mph 1022.2mb 60f 52f
5:42 3 9 mph 1022.2mb 60f 51f
5:36 9 10 mph 1022.2mb 60f 51f
5:30 3 7 mph 1022.2mb 60f 52f
5:24  -  5 mph 1022.3mb 60f 52f
5:18  -  5 mph 1022.3mb 60f 52f
5:12  -  2 mph 1022.3mb 60f 53f
5:06  -  3 mph 1022.3mb 60f 53f
5:00 2 7 mph 1022.3mb 60f 53f
4:54 3 8 mph 1022.4mb 60f 53f
4:48 7 9 mph 1022.3mb 60f 53f
4:42 3 7 mph 1022.3mb 60f 53f
4:36 7 9 mph 1022.3mb 60f 53f
4:30 5 8 mph 1022.3mb 60f 53f
4:24 6 7 mph 1022.3mb 60f 53f
4:18 2 5 mph 1022.3mb 60f 53f
4:12 2 6 mph 1022.3mb 60f 53f
4:06 1 7 mph 1022.3mb 60f 53f
4:00 3 8 mph 1022.3mb 60f 53f
3:54 5 8 mph 1022.3mb 60f 53f
3:48 6 8 mph 1022.4mb 60f 53f
3:42 6 9 mph 1022.5mb 60f 53f
3:36 6 9 mph 1022.5mb 60f 53f
3:30 8 10 mph 1022.6mb 60f 53f
3:24 7 9 mph 1022.6mb 60f 53f
3:18 5 10 mph 1022.6mb 60f 54f
3:12 9 10 mph 1022.6mb 60f 53f
3:06 7 10 mph 1022.7mb 60f 53f
3:00 5 9 mph 1022.8mb 60f 54f
2:54 2 5 mph 1022.8mb 60f 54f
2:48 2 5 mph 1022.9mb 60f 54f
2:42 2 6 mph 1022.9mb 60f 54f
2:36 3 7 mph 1022.9mb 60f 54f
2:30 3 7 mph 1023mb 60f 53f
2:24 5 7 mph 1023.1mb 60f 53f
2:18 3 6 mph 1023.1mb 60f 53f
2:12 2 7 mph 1023.1mb 60f 53f
2:06 7 8 mph 1023.1mb 60f 54f
2:00 5 7 mph 1023.1mb 60f 53f
1:54 7 10 mph 1023.2mb 60f 53f
1:48 5 9 mph 1023.3mb 60f 53f
1:42 3 7 mph 1023.2mb 60f 54f
1:36 3 8 mph 1023.2mb 60f 54f
1:30 7 10 mph 1023.2mb 60f 53f
1:24 8 10 mph 1023.3mb 60f 53f
1:18 7 9 mph 1023.3mb 60f 54f
1:12 3 8 mph 1023.4mb 60f 54f
1:06 6 9 mph 1023.5mb 60f 54f
1:00 8 9 mph 1023.5mb 60f 53f
12:54 7 9 mph 1023.6mb 60f 54f
12:48 3 6 mph 1023.5mb 60f 54f
12:42  -  3 mph 1023.5mb 60f 54f
12:36 2 8 mph 1023.5mb 60f 54f
12:30 5 9 mph 1023.5mb 60f 54f
12:24 7 9 mph 1023.5mb 60f 54f
12:18 7 9 mph 1023.6mb 60f 54f
12:12 6 8 mph 1023.6mb 60f 54f
12:06 6 9 mph 1023.6mb 60f 54f
12:00 6 8 mph 1023.6mb 60f 54f
sáb 05/23 11:54 5 7 mph 1023.7mb 60f 54f
11:48 6 7 mph 1023.7mb 60f 54f
11:42 5 7 mph 1023.7mb 60f 54f
11:36  -  7 mph 1023.8mb 60f 54f
11:30 6 8 mph 1023.7mb 60f 54f
11:24 6 9 mph 1023.7mb 60f 54f
11:18 7 8 mph 1023.7mb 60f 54f
11:12 6 8 mph 1023.7mb 60f 54f
11:06 3 7 mph 1023.7mb 60f 54f
11:00 5 7 mph - 60f 54f
10:54 6 8 mph - 60f 54f
10:48  -  6 mph 1023.8mb 60f 54f
10:42 5 8 mph 1023.8mb 60f 54f
10:36 6
mph
1023.7mb 60f 54f
10:30 3 6 mph 1023.7mb 60f 54f
10:24 2 3 mph 1023.7mb 60f 54f
10:18 3 5 mph 1023.6mb 60f 54f
10:12 3 6 mph 1023.7mb 60f 53f
10:06 3 7 mph 1023.7mb 60f 53f
10:00 5 7 mph 1023.6mb 60f 54f
9:54 5 9 mph 1023.6mb 60f 54f
9:48 5 8 mph 1023.5mb 60f 54f
9:42 6 7 mph 1023.5mb 60f 54f
9:36  -  5 mph 1023.5mb 60f 55f
9:30 3 6 mph 1023.4mb 60f 55f
9:24 1 5 mph 1023.3mb 60f 55f
9:18  -  6 mph 1023.3mb 60f 55f
9:12 2 6 mph 1023.2mb 60f 54f
9:06 6 8 mph 1023.2mb 60f 54f
9:00 6 9 mph 1023.2mb 60f 54f
8:54 7 9 mph 1023.3mb 60f 54f
8:48 5 9 mph 1023.3mb 60f 54f
8:42 3 8 mph 1023.3mb 60f 54f
8:36 2 7 mph 1023.3mb 60f 54f
8:30 5 9 mph 1023.3mb 60f 55f
8:24 7 11 mph 1023.3mb 60f 54f
8:18 9 11 mph 1023.3mb 60f 55f
8:12 8 11 mph 1023.3mb 60f 55f
8:06 9 11 mph 1023.2mb 60f 55f
8:00 7 10 mph 1023.2mb 60f 55f
7:54 8 11 mph 1023.2mb 60f 55f
7:48 9 13 mph 1023.2mb 60f 55f
7:42 10 14 mph 1023.2mb 60f 55f
7:36 9 11 mph 1023.1mb 60f 55f
7:30 8 9 mph 1023.1mb 60f 55f
7:24 7 10 mph 1023.1mb 60f 55f
7:18 2 5 mph 1023.1mb 60f 56f
7:12 1 3 mph 1023.1mb 60f 56f
7:06 1 3 mph 1023.1mb 60f 56f
7:00 1 5 mph 1023mb 60f 56f
6:54  -  7 mph 1023mb 60f 56f
6:48 1 9 mph 1023mb 60f 56f
6:42 5 9 mph 1023mb 60f 56f
6:36 2 8 mph 1023mb 60f 56f
6:30 1 7 mph 1023mb 60f 56f
6:24  -  3 mph 1023.1mb 60f 56f
6:18  -  3 mph 1023.1mb 60f 56f
6:12  -  2 mph 1023.1mb 60f 56f
6:06  -  3 mph 1023.2mb 60f 57f
6:00 1 3 mph 1023.1mb 60f 56f
5:54 1 3 mph 1023.2mb 60f 56f
5:48 1 5 mph 1023.3mb 60f 56f
5:42 1 3 mph 1023.3mb 60f 56f
5:36 1 3 mph 1023.4mb 60f 57f
5:30 2 8 mph 1023.4mb 60f 56f
5:24 1 5 mph 1023.4mb 60f 56f
5:18 2 5 mph 1023.4mb 60f 56f
5:12 1 7 mph 1023.5mb 60f 56f
5:06 3 10 mph 1023.6mb 60f 56f
5:00 2 6 mph 1023.6mb 60f 56f
4:54 1 6 mph 1023.6mb 60f 56f
4:48 1 5 mph 1023.6mb 60f 57f
4:42 1 6 mph 1023.6mb 60f 57f
4:36 2 6 mph 1023.6mb 60f 56f
4:30 1 5 mph 1023.6mb 60f 57f
4:24 1 6 mph 1023.7mb 60f 57f
4:18 1 7 mph 1023.8mb 60f 57f
4:12 2 6 mph 1023.8mb 60f 57f
4:06  -  5 mph 1023.8mb 60f 57f
4:00 2 6 mph 1023.8mb 60f 57f
3:54  -  6 mph 1023.8mb 60f 57f
3:48 3 9 mph 1023.9mb 60f 56f
3:42 6 10 mph 1023.9mb 60f 56f
3:36 9 11 mph 1023.9mb 60f 55f
3:30 8 10 mph 1023.9mb 60f 56f
3:24  -  5 mph 1024mb 60f 58f
3:18  -  5 mph 1024mb 60f 58f
3:12 5 9 mph 1024mb 60f 57f
3:06 1 6 mph 1024mb 60f 58f
3:00  -  5 mph 1023.9mb 60f 58f
2:54  -  8 mph 1023.9mb 60f 58f
2:48 2 8 mph 1023.9mb 60f 57f
2:42 1 7 mph 1023.9mb 60f 57f
2:36 2 6 mph 1023.9mb 60f 57f
2:30 1 6 mph 1023.9mb 60f 57f
2:24 3 7 mph 1023.9mb 60f 57f
2:18 1 6 mph 1024mb 60f 57f
2:12  -  3 mph 1024mb 60f 57f
2:06 3 8 mph 1023.9mb 60f 56f
2:00 3 7 mph 1023.8mb 60f 56f
1:54 5 8 mph 1023.8mb 60f 56f
1:48 3 7 mph 1023.9mb 60f 56f
1:42 2 10 mph 1023.8mb 60f 56f
1:36 3 6 mph 1023.8mb 60f 56f
1:30 3 7 mph 1023.9mb 60f 56f
1:24 1 5 mph 1023.8mb 60f 56f
1:18 2 6 mph 1023.8mb 60f 56f
1:12 2 6 mph 1023.8mb 60f 56f
1:06 1 5 mph 1023.8mb 60f 56f
1:00 1 6 mph 1023.8mb 60f 56f
12:54 1 6 mph 1023.8mb 60f 57f
12:48 1 7 mph 1023.7mb 60f 57f
12:42 1 5 mph 1023.7mb 60f 57f
12:36 2 5 mph 1023.6mb 60f 56f
12:30  -  6 mph 1023.6mb 60f 57f
12:24 2 6 mph 1023.5mb 60f 57f
12:18 1 7 mph 1023.4mb 60f 57f
12:12 2 7 mph 1023.3mb 60f 57f
12:06 2 6 mph 1023.3mb 60f 56f
12:00 2 6 mph 1023.3mb 60f 56f
11:54 1 7 mph 1023.2mb 60f 57f
11:48 2 6 mph 1023.2mb 60f 56f
11:42 1 5 mph 1023.2mb 60f 56f
11:36 2 6 mph 1023.1mb 60f 56f
11:30 1 5 mph 1023.1mb 60f 56f
11:24 2 5 mph 1023.1mb 60f 56f
11:18 1 3 mph 1023mb 60f 56f
11:12  -  3 mph 1023mb 60f 56f
11:06 1 8 mph 1023mb 60f 56f
11:00 2 8 mph 1023mb 60f 56f
10:54 1 6 mph 1022.9mb 60f 56f
10:48 1 5 mph 1022.8mb 60f 57f
10:42 1 7 mph 1022.8mb 60f 57f
10:36 1 5 mph 1022.8mb 60f 56f
10:30 1 5 mph 1022.7mb 60f 57f
10:24 2 5 mph 1022.5mb 60f 56f
10:18 3 6 mph 1022.4mb 60f 56f
10:12 6 8 mph 1022.4mb 60f 55f
10:06 2 6 mph 1022.4mb 60f 56f
10:00 2 6 mph 1022.4mb 60f 56f
9:54 1 6 mph 1022.5mb 60f 56f
9:48 1 7 mph 1022.4mb 60f 55f
9:42 2 6 mph 1022.4mb 60f 55f
9:36 1 5 mph 1022.4mb 60f 55f
9:30 1 3 mph 1022.3mb 60f 55f
9:24 1 3 mph 1022.4mb 60f 55f
9:18 1 3 mph 1022.4mb 60f 55f
9:12 2 6 mph 1022.4mb 60f 54f
9:06 1 3 mph 1022.4mb 60f 54f
9:00 1 9 mph 1022.3mb 60f 54f
8:54 6 9 mph 1022.3mb 60f 54f
8:48 1 5 mph 1022.2mb 59f 54f
8:42  -  3 mph 1022.2mb 59f 54f
8:36 1 6 mph 1022.1mb 60f 54f
8:30 2 5 mph 1022.1mb 60f 54f
8:24 5 6 mph 1022.1mb 59f 54f
8:18 2 6 mph 1022mb 59f 53f
8:12 5 6 mph 1022.1mb 59f 53f
8:06 5 7 mph 1022mb 59f 53f
8:00 6 7 mph 1022mb 59f 53f
7:54 6 7 mph 1022mb 59f 53f
7:48 5 6 mph 1021.9mb 58f 53f
7:42 6 7 mph 1021.8mb 58f 53f
7:36 5 6 mph 1021.9mb 58f 53f
7:30 6
mph
1021.9mb 59f 53f
7:24 3 6 mph 1021.9mb 60f 53f
7:18 6
mph
1021.8mb 60f 53f
7:12 5 7 mph 1021.7mb 60f 53f
7:06 6 8 mph 1021.7mb 60f 53f
7:00 3 7 mph 1021.7mb 60f 54f
6:54 6 9 mph 1021.6mb 60f 53f
6:48 3 7 mph 1021.6mb 60f 54f
6:42 1 5 mph 1021.6mb 60f 54f
6:36  -  3 mph 1021.5mb 60f 54f
6:30 2 7 mph 1021.4mb 60f 54f
6:24  -  3 mph 1021.4mb 60f 54f
6:18 1 3 mph 1021.4mb 60f 54f
6:12 2 6 mph 1021.3mb 60f 54f
6:06 1 5 mph 1021.3mb 60f 54f
6:00 1 5 mph 1021.2mb 60f 54f
5:54  -  3 mph 1021.2mb 60f 54f
5:48 1 3 mph 1021.1mb 60f 54f
5:42 1 3 mph 1021.1mb 60f 54f
5:36 1 5 mph 1021.1mb 60f 54f
5:30 1 3 mph 1021mb 60f 54f
5:24 1 5 mph 1021mb 60f 54f
5:18  -  2 mph 1021mb 60f 54f
5:12  -  7 mph 1020.9mb 60f 54f
5:06 2 6 mph 1020.9mb 60f 54f
5:00 5 7 mph 1020.9mb 60f 54f
4:54 3 7 mph 1020.9mb 60f 54f
4:48 2 5 mph 1020.9mb 60f 54f
4:42 5 8 mph 1021mb 60f 54f
4:36 6 9 mph 1021mb 60f 54f
4:30 6 10 mph 1020.9mb 60f 54f
4:24 1 7 mph 1021mb 60f 54f
4:18 1 6 mph 1020.9mb 60f 54f
4:12  -  6 mph 1020.9mb 60f 54f
4:06 1 9 mph 1020.9mb 60f 54f
4:00 5 7 mph 1020.9mb 60f 54f
3:54 3 8 mph 1020.9mb 60f 54f
3:48 5 11 mph 1021mb 60f 54f
3:42 3 9 mph 1021mb 60f 54f
3:36 3 9 mph 1021mb 60f 54f
3:30 8 11 mph 1020.9mb 60f 54f
3:24 6 10 mph 1021mb 60f 54f
3:18 5 8 mph 1020.9mb 60f 54f
3:12 6 9 mph 1020.9mb 60f 54f
3:06 5 8 mph 1020.8mb 60f 54f
3:00 2 7 mph 1020.8mb 60f 54f
2:54 5 9 mph 1020.7mb 60f 54f
2:48 6 8 mph 1020.8mb 60f 54f
2:42 6 9 mph 1020.7mb 60f 54f
2:36 3 9 mph 1020.7mb 60f 54f
2:30 2 6 mph 1020.6mb 60f 54f
2:24  -  6 mph 1020.5mb 60f 54f
2:18 1 8 mph 1020.4mb 60f 54f
2:12 1 6 mph 1020.3mb 60f 54f
2:06 2 6 mph 1020.2mb 60f 54f
2:00 5 9 mph 1020.3mb 60f 54f
1:54 3 9 mph 1020.3mb 60f 54f
1:48 5 9 mph 1020.3mb 60f 54f
1:42 2 6 mph 1020.3mb 60f 54f
1:36 6 7 mph 1020.1mb 60f 54f
1:30 6 9 mph 1020.2mb 60f 54f
1:24 6 8 mph 1020.2mb 60f 54f
1:18 5 8 mph 1020.2mb 60f 54f
1:12 6 8 mph 1020.2mb 60f 54f
1:06 5 7 mph 1020.2mb 60f 54f
1:00 5 7 mph 1020.2mb 60f 54f
12:54 5 8 mph 1020.2mb 60f 54f
12:48 6 8 mph 1020.1mb 60f 54f
12:42 6 7 mph 1020.2mb 60f 54f
12:36 6 8 mph 1020.2mb 60f 54f
12:30 6 10 mph 1020.1mb 60f 54f
12:24 6 8 mph 1020.1mb 60f 53f
12:18 7 9 mph 1020.1mb 60f 53f
12:12 8 9 mph 1020.1mb 60f 53f
12:06 7 11 mph 1020mb 60f 53f
12:00 7 9 mph 1019.9mb 60f 54f
vie 05/22 11:54 7 10 mph 1019.9mb 60f 53f
11:48 7 10 mph - 60f 54f
11:42 6 8 mph - 60f 54f
11:36 7 9 mph - 60f 54f
11:30 7 9 mph 1019.9mb 60f 54f
11:24 7 9 mph 1019.9mb 60f 54f
11:18 6 8 mph 1020mb 60f 54f
11:12 6 9 mph 1020mb 60f 54f
11:06 6 8 mph 1019.9mb 60f 54f
11:00 6 8 mph 1019.9mb 60f 54f
10:54 6 9 mph 1019.9mb 60f 54f
10:48 6 8 mph 1019.9mb 60f 54f
10:42 6 8 mph 1019.9mb 60f 53f
10:36 6 8 mph 1019.8mb 60f 54f
10:30 8 10 mph 1019.8mb 60f 53f
10:24 7 10 mph 1019.7mb 60f 54f
10:18 6 8 mph 1019.7mb 60f 54f
10:12 6 8 mph 1019.7mb 60f 53f
10:06 6 9 mph 1019.7mb 60f 54f
10:00 6 8 mph 1019.6mb 60f 54f
9:54 7 10 mph 1019.6mb 60f 54f
9:48 7 9 mph 1019.5mb 60f 54f
9:42 7 10 mph 1019.4mb 60f 54f
9:36 6 8 mph 1019.4mb 60f 54f
9:30 6 7 mph 1019.5mb 60f 53f
9:24 5 8 mph 1019.5mb 60f 53f
9:18 6 8 mph 1019.4mb 60f 53f
9:12 3 6 mph 1019.3mb 60f 54f
9:06 5 8 mph 1019.2mb 60f 54f
9:00 6 8 mph 1019.1mb 60f 54f
8:54 6 9 mph 1019.1mb 60f 54f
8:48 6 9 mph 1019.1mb 60f 54f
8:42 7 9 mph 1019.1mb 60f 53f
8:36 8 9 mph 1019.1mb 60f 53f
8:30 6 7 mph 1019mb 60f 54f
8:24 5 9 mph 1019mb 60f 54f
8:18 6 8 mph 1019mb 60f 54f
8:12 6 8 mph 1019mb 60f 54f
8:06 6 9 mph 1019mb 60f 54f
8:00 6 8 mph 1018.9mb 60f 54f
7:54 6 8 mph 1018.9mb 60f 54f
7:48 6 9 mph 1018.9mb 60f 55f
7:42 5 10 mph 1018.8mb 60f 55f
7:36 3 8 mph 1018.8mb 60f 55f
7:30 5 8 mph 1018.8mb 60f 55f
7:24 6 8 mph 1018.8mb 60f 55f
7:18 6 9 mph 1018.8mb 60f 55f
7:12 6 9 mph 1018.8mb 60f 55f
7:06 6 9 mph 1018.8mb 60f 55f
7:00 7 13 mph 1018.7mb 60f 55f
6:54 6 9 mph 1018.6mb 60f 55f
6:48 5 9 mph 1018.6mb 60f 55f
6:42 7 10 mph 1018.5mb 60f 55f
6:36 7 10 mph 1018.5mb 60f 55f
6:30 6 8 mph 1018.6mb 60f 55f
6:24 6 9 mph 1018.6mb 60f 55f
6:18 6 9 mph 1018.5mb 60f 55f
6:12 5 9 mph 1018.5mb 60f 55f
6:06 5 8 mph 1018.6mb 60f 55f
6:00 5 9 mph 1018.6mb 60f 55f
5:54 5 9 mph 1018.6mb 60f 55f
5:48 6 8 mph 1018.6mb 60f 55f
5:42 5 10 mph 1018.6mb 60f 55f
5:36 3 8 mph 1018.6mb 60f 55f
5:30 3 7 mph 1018.6mb 60f 55f
5:24 3 7 mph 1018.6mb 60f 55f
5:18 2 7 mph 1018.6mb 60f 54f
5:12 3 9 mph 1018.7mb 60f 55f
5:06 3 8 mph 1018.7mb 60f 55f
5:00 1 7 mph 1018.7mb 60f 55f
4:54  -  3 mph 1018.7mb 60f 55f
4:48 1 3 mph 1018.7mb 60f 55f
4:42  -  6 mph 1018.6mb 60f 55f
4:36 2 6 mph 1018.6mb 60f 55f
4:30 3 7 mph 1018.6mb 60f 55f
4:24 3 8 mph 1018.6mb 60f 55f
4:18 3 8 mph 1018.6mb 60f 55f
4:12 2 8 mph 1018.5mb 60f 55f
4:06 3 8 mph 1018.5mb 60f 55f
4:00 3 7 mph 1018.4mb 60f 54f
3:54 2 7 mph 1018.4mb 60f 54f
3:48 2 7 mph 1018.4mb 60f 54f
3:42 3 6 mph 1018.4mb 60f 54f
3:36 3 8 mph 1018.4mb 60f 54f
3:30 1 8 mph 1018.4mb 60f 54f
3:24 3 8 mph 1018.4mb 60f 54f
3:18 5 8 mph 1018.4mb 60f 54f
3:12 5 8 mph 1018.4mb 60f 54f
3:06 5 9 mph 1018.4mb 60f 54f
3:00 3 7 mph 1018.4mb 60f 54f
2:54 5 8 mph 1018.4mb 60f 54f
2:48 6 9 mph 1018.4mb 60f 54f
2:42 3 8 mph 1018.4mb 60f 54f
2:36 2 9 mph 1018.5mb 60f 54f
2:30 6 9 mph 1018.5mb 60f 54f
2:24 3 9 mph 1018.5mb 60f 54f
2:18 2 7 mph 1018.5mb 60f 54f
2:12 2 8 mph 1018.5mb 60f 55f
2:06 2 10 mph 1018.5mb 60f 55f
2:00 5 8 mph 1018.5mb 60f 55f
1:54 3 10 mph 1018.5mb 60f 54f
1:48 2 8 mph 1018.5mb 60f 54f
1:42 3 8 mph 1018.6mb 60f 54f
1:36 3 7 mph 1018.6mb 60f 54f
1:30 3 10 mph 1018.5mb 60f 54f
1:24 2 10 mph 1018.6mb 60f 54f
1:18 5 8 mph 1018.5mb 60f 55f
1:12 2 6 mph 1018.5mb 60f 55f
1:06 1 6 mph 1018.5mb 60f 55f
1:00 1 7 mph 1018.5mb 60f 55f
12:54 2 7 mph 1018.5mb 60f 54f
12:48  -  7 mph 1018.4mb 60f 55f
12:42 1 6 mph 1018.4mb 59f 54f
12:36 3 10 mph 1018.3mb 59f 54f
12:30 5 9 mph 1018.3mb 59f 54f
12:24 3 8 mph 1018.3mb 59f 54f
12:18 3 8 mph 1018.2mb 59f 54f
12:12 1 6 mph 1018.2mb 59f 55f
12:06 3 10 mph 1018.1mb 59f 55f
12:00 6 11 mph 1018mb 59f 55f
11:54 7 11 mph 1017.9mb 59f 54f
11:48 5 9 mph 1017.8mb 59f 55f
11:42 3 8 mph 1017.8mb 59f 54f
11:36 3 9 mph 1017.7mb 59f 54f
11:30 2 9 mph 1017.7mb 59f 54f
11:24 2 8 mph 1017.7mb 59f 54f
11:18 2 8 mph 1017.7mb 59f 54f
11:12 2 9 mph 1017.6mb 59f 54f
11:06 3 6 mph 1017.6mb 59f 54f
11:00 2 10 mph 1017.6mb 59f 54f
10:54 5 10 mph 1017.6mb 59f 54f
10:48 2 6 mph 1017.5mb 59f 54f
10:42 2 6 mph 1017.4mb 59f 54f
10:36 2 7 mph 1017.4mb 59f 54f
10:30 1 8 mph 1017.4mb 59f 54f
10:24 2 8 mph 1017.4mb 59f 54f
10:18 5 10 mph 1017.3mb 59f 54f
10:12 2 7 mph 1017.3mb 60f 54f
10:06 1 3 mph 1017.2mb 60f 54f
10:00 2 5 mph 1017.2mb 60f 54f
9:54 2 5 mph 1017.2mb 60f 54f
9:48 1 5 mph 1017.2mb 60f 54f
9:42 3 8 mph 1017.2mb 60f 54f
9:36 5 8 mph 1017.1mb 60f 54f
9:30 7 10 mph 1017.1mb 60f 54f
9:24 5 10 mph 1017.1mb 60f 54f
9:18 7 9 mph 1017mb 60f 54f
9:12 3 10 mph 1017mb 60f 54f
9:06 1 6 mph 1016.9mb 60f 54f
9:00 3 8 mph 1016.9mb 60f 54f
8:54 2 3 mph 1016.9mb 60f 54f
8:48 1 5 mph 1016.8mb 60f 54f
8:42  -  3 mph 1016.7mb 60f 54f
8:36 1 3 mph 1016.6mb 60f 54f
8:30 1 5 mph 1016.6mb 60f 54f
8:24 1 5 mph 1016.6mb 60f 54f
8:18 2 7 mph 1016.6mb 60f 54f
8:12  -  2 mph 1016.6mb 59f 54f
8:06  -  3 mph 1016.5mb 59f 54f
8:00 1 6 mph 1016.5mb 59f 54f
7:54  -  2 mph 1016.5mb 59f 54f
7:48 2 6 mph 1016.5mb 59f 54f
7:42 1 3 mph 1016.5mb 60f 53f
7:36 1 3 mph 1016.4mb 59f 53f
7:30  -  6 mph 1016.5mb 59f 53f
7:24  -  5 mph 1016.4mb 59f 54f
7:18 1 7 mph 1016.3mb 59f 54f
7:12 3 6 mph 1016.3mb 59f 54f
7:06 1 5 mph 1016.3mb 59f 53f
7:00 1 5 mph 1016.2mb 59f 53f
6:54 2 5 mph 1016.2mb 59f 53f
6:48 1 3 mph 1016.2mb 60f 53f
6:42 3 7 mph 1016.2mb 60f 53f
6:36 5 8 mph 1016.1mb 60f 53f
6:30 2 5 mph 1016.1mb 60f 53f
6:24 2 5 mph 1016.1mb 60f 53f
6:18 3 6 mph 1016.1mb 60f 53f
6:12  -  6 mph 1016mb 60f 53f
6:06 2 8 mph 1016mb 60f 53f
6:00 6 8 mph 1015.9mb 60f 53f
5:54 6 8 mph 1015.9mb 60f 54f
5:48 5 8 mph 1015.9mb 60f 54f
5:42 1 8 mph 1015.8mb 60f 53f
5:36 1 3 mph 1015.8mb 60f 53f
5:30 3 9 mph 1015.8mb 60f 53f
5:24 3 8 mph 1015.9mb 60f 53f
5:18  -  7 mph 1015.9mb 60f 53f
5:12 1 3 mph 1015.8mb 60f 53f
5:06  -  6 mph 1015.8mb 60f 53f
5:00 1 5 mph 1015.8mb 60f 53f
4:54 3 8 mph 1015.7mb 60f 53f
4:48 3 6 mph 1015.6mb 60f 53f
4:42  -  6 mph 1015.7mb 60f 53f
4:36 2 6 mph 1015.6mb 60f 53f
4:30 1 6 mph 1015.6mb 60f 53f
4:24 3 7 mph 1015.7mb 60f 53f
4:18 1 6 mph 1015.7mb 60f 53f
4:12  -  6 mph 1015.7mb 60f 53f
4:06  -  6 mph 1015.7mb 60f 53f
4:00 1 3 mph 1015.6mb 60f 53f
3:54 1 6 mph 1015.6mb 60f 53f
3:48 1 5 mph 1015.5mb 60f 53f
3:42 3 9 mph 1015.4mb 60f 53f
3:36 1 3 mph 1015.4mb 60f 53f
3:30 2 5 mph 1015.3mb 60f 53f
3:24 2 7 mph 1015.3mb 60f 53f
3:18 2 8 mph 1015.3mb 60f 53f
3:12 3 8 mph 1015.2mb 60f 53f
3:06 2 8 mph 1015.2mb 60f 53f
3:00 5 8 mph 1015.2mb 60f 54f
2:54 5 10 mph 1015.2mb 60f 54f
2:48 2 9 mph 1015.2mb 60f 54f
2:42 5 10 mph 1015.2mb 60f 54f
2:36 5 9 mph 1015.2mb 60f 54f
2:30 6 11 mph 1015.2mb 60f 54f
2:24 5 9 mph 1015.2mb 60f 54f
2:18 3 10 mph 1015.2mb 60f 54f
2:12 5 9 mph 1015.3mb 60f 54f
2:06 5 8 mph 1015.3mb 60f 54f
2:00 2 8 mph 1015.3mb 60f 54f
1:54 2 8 mph 1015.4mb 60f 54f
1:48 5 9 mph 1015.3mb 60f 54f
1:42 5 9 mph 1015.4mb 60f 54f
1:36 6 9 mph 1015.3mb 60f 54f
1:30 5 9 mph 1015.3mb 60f 54f
1:24 5 9 mph 1015.3mb 60f 54f
1:18 3 8 mph 1015.3mb 60f 54f
1:12 3 8 mph 1015.4mb 60f 54f
1:06 3 7 mph 1015.3mb 60f 54f
1:00 1 6 mph 1015.2mb 60f 54f
12:54 1 9 mph 1015.2mb 60f 54f
12:48 2 9 mph 1015.2mb 60f 54f
12:42 5 10 mph 1015.1mb 60f 54f
12:36 7 10 mph 1015.1mb 60f 54f
12:30 6 9 mph 1015mb 60f 54f
12:24 3 9 mph 1015.1mb 60f 54f
12:18 5 10 mph 1015.1mb 60f 54f
12:12 5 10 mph 1015.1mb 60f 54f
12:06 6 10 mph 1015.1mb 60f 54f
12:00 6 8 mph 1015.2mb 60f -
jue 05/21 11:54 6 9 mph 1015.1mb 60f -
11:48 3 8 mph 1015.2mb 60f 54f
11:42 5 10 mph 1015.1mb 60f 55f
11:36 7 9 mph 1015.1mb 60f 54f
11:30 7 10 mph 1015.1mb 60f 54f
11:24 6 10 mph 1015.2mb 60f 54f
11:18 6 8 mph 1015.2mb 60f 54f
11:12 5 9 mph 1015.1mb 60f 55f
11:06 2 7 mph 1015mb 60f 54f
11:00  -  mph 1015mb 60f 55f
10:54  -  mph 1014.9mb 60f 55f
10:48 6 9 mph 1014.9mb 60f 55f
10:42 5 8 mph 1014.9mb 60f 55f
10:36 5 10 mph 1014.8mb 60f 55f
10:30 5 10 mph 1014.8mb 60f 54f
10:24 2 8 mph 1014.8mb 60f 54f
10:18 1 8 mph 1014.7mb 60f 54f
10:12 2 10 mph 1014.7mb 60f 54f
10:06 5 11 mph 1014.7mb 60f 54f
10:00 3 8 mph 1014.6mb 60f 54f
9:54 5 10 mph 1014.6mb 60f 54f
9:48 1 6 mph 1014.5mb 60f 54f
9:42 1 9 mph 1014.5mb 60f 54f
9:36 3 10 mph 1014.6mb 60f 54f
9:30 5 8 mph 1014.5mb 60f 54f
9:24 2 10 mph 1014.5mb 60f 54f
9:18 5 10 mph 1014.5mb 60f 54f
9:12 7 13 mph 1014.4mb 60f 54f
9:06 5 10 mph 1014.4mb 60f 55f
9:00 3 9 mph 1014.4mb 60f 55f
8:54 5 10 mph 1014.3mb 60f 55f
8:48 2 9 mph 1014.3mb 60f 55f
8:42 5 10 mph 1014.2mb 60f 55f
8:36 2 7 mph 1014.1mb 60f 55f
8:30 5 9 mph 1014.1mb 60f 55f
8:24 2 6 mph 1014.1mb 60f 55f
8:18 6 10 mph 1014mb 60f 55f
8:12 2 10 mph 1014.1mb 60f 55f
8:06 2 7 mph 1014mb 60f 55f
8:00 2 6 mph 1013.9mb 59f 55f
7:54 5 9 mph 1013.8mb 59f 55f
7:48 2 11 mph 1013.7mb 59f 55f
7:42 6 9 mph 1013.6mb 60f 55f
7:36 3 8 mph 1013.6mb 60f 55f
7:30 3 8 mph 1013.6mb 60f 55f
7:24 1 9 mph 1013.7mb 60f 55f
7:18 5 8 mph 1013.8mb 60f 55f
7:12 6 10 mph 1013.8mb 60f 55f
7:06 1 10 mph 1013.7mb 60f 55f
7:00 3 11 mph 1013.7mb 60f 55f
6:54 3 9 mph 1013.6mb 60f 55f
6:48 2 8 mph 1013.6mb 60f 55f
6:42 1 8 mph 1013.6mb 60f 55f
6:36 3 9 mph 1013.6mb 60f 55f
6:30 2 8 mph 1013.6mb 60f 55f
6:24 3 10 mph 1013.5mb 60f 55f
6:18 3 11 mph 1013.4mb 60f 56f
6:12 5 10 mph 1013.4mb 60f 56f
6:06 6 13 mph 1013.3mb 60f 56f
6:00 6 11 mph 1013.2mb 60f 56f
5:54 2 8 mph 1013.2mb 60f 56f
5:48 3 14 mph 1013.2mb 60f 56f
5:42 3 10 mph 1013.3mb 60f 56f
5:30 2 11 mph 1013.5mb 60f 56f
5:18 5 14 mph 1013.5mb 60f 56f
5:00 5 13 mph 1013.4mb 60f 56f
4:54 5 11 mph 1013.4mb 60f 56f
4:48 8 13 mph 1013.4mb 60f 56f
4:42 6 13 mph 1013.4mb 60f 56f
4:36 5 11 mph 1013.3mb 60f 56f
4:30 6 10 mph 1013.3mb 60f 56f
4:24 5 10 mph 1013.3mb 60f 56f
4:18 3 9 mph 1013.3mb 60f 56f
4:12 2 8 mph 1013.3mb 60f 57f
4:06 3 9 mph 1013.2mb 60f 56f
4:00 5 10 mph 1013.3mb 60f 56f
3:54 5 11 mph 1013.3mb 60f 56f
3:48 5 13 mph 1013.3mb 60f 56f
3:42 6 11 mph 1013.4mb 60f 56f
3:36 8 14 mph 1013.4mb 60f 56f
3:30 7 11 mph 1013.5mb 60f 56f
3:24 6 11 mph 1013.5mb 60f 56f
3:18 3 11 mph 1013.5mb 60f 56f
3:12 5 9 mph 1013.6mb 60f 56f
3:06 3 8 mph 1013.6mb 60f 57f
3:00 1 5 mph 1013.7mb 60f 57f
2:54 2 8 mph 1013.7mb 60f 57f
2:48 1 8 mph 1013.8mb 60f 57f
2:42 2 5 mph 1013.8mb 60f 57f
2:36 2 6 mph 1013.8mb 60f 57f
2:30 1 5 mph 1013.8mb 60f 58f
2:24 1 6 mph 1013.8mb 60f 57f
2:18 2 9 mph 1013.8mb 60f 57f
2:12 1 5 mph 1013.8mb 60f 58f
2:06 2 6 mph 1013.8mb 60f 58f
2:00 3 8 mph 1013.7mb 60f 57f
1:54 2 7 mph 1013.7mb 60f 57f
1:48 2 7 mph 1013.7mb 60f 57f
1:42 3 8 mph 1013.7mb 60f 57f
1:36 1 7 mph 1013.7mb 60f 57f
1:30 1 3 mph 1013.7mb 60f 57f
1:24 2 6 mph 1013.7mb 60f 57f
1:18 3 7 mph 1013.7mb 60f 56f
1:12 2 7 mph 1013.7mb 60f 56f
1:06 1 7 mph 1013.7mb 60f 56f
1:00 2 6 mph 1013.7mb 60f 56f
12:54 3 8 mph 1013.7mb 60f 56f
12:48 3 7 mph 1013.7mb 60f 56f
12:42 3 7 mph 1013.8mb 60f 56f
12:36 3 7 mph 1013.8mb 60f 56f
12:30 5 7 mph 1013.8mb 60f 56f
12:24 2 6 mph 1013.9mb 60f 56f
12:18 2 5 mph 1013.8mb 60f 57f
12:12 1 6 mph 1013.8mb 60f 57f
12:06 1 5 mph 1013.8mb 60f 57f
12:00 1 3 mph 1013.8mb 60f 57f
11:54 1 5 mph 1013.8mb 59f 56f
11:48 3 7 mph 1013.8mb 59f 55f
11:42 5 7 mph 1013.8mb 59f 55f
11:36 2 6 mph 1013.8mb 59f 55f
11:30 3 6 mph 1013.8mb 59f 54f
11:24 5 6 mph 1013.8mb 59f 54f
11:18 5 6 mph 1013.8mb 59f 54f
11:12 3 6 mph 1013.8mb 59f 54f
11:06 2 6 mph 1013.7mb 59f 54f
11:00 2 5 mph 1013.7mb 59f 54f
10:54 3 7 mph 1013.7mb 59f 53f
10:48 5 7 mph 1013.7mb 59f 53f
10:42 3 7 mph 1013.6mb 59f 53f
10:36 3 7 mph 1013.7mb 59f 53f
10:30 5 7 mph 1013.7mb 59f 53f
10:24 3 7 mph 1013.7mb 59f 53f
10:18 3 9 mph 1013.8mb 59f 53f
10:12 5 9 mph 1013.8mb 59f 53f
10:06 3 8 mph 1013.8mb 58f 53f
10:00 5 8 mph 1013.8mb 58f 53f
9:54 7 9 mph 1013.8mb 58f 53f
9:48 6 8 mph 1013.7mb 58f 53f
9:42 6 8 mph 1013.7mb 58f 53f
9:36 6 9 mph 1013.7mb 58f 53f
9:30 6 8 mph 1013.7mb 58f 53f
9:24 6 7 mph 1013.6mb 58f 53f
9:18 3 7 mph 1013.6mb 58f 52f
9:12 5 8 mph 1013.6mb 58f 53f
9:06 3 6 mph 1013.6mb 59f 53f
9:00 3 6 mph 1013.6mb 59f 53f
8:54 5 6 mph 1013.6mb 58f 52f
8:48 6
mph
1013.6mb 58f 52f
8:42 5 6 mph 1013.5mb 58f 52f
8:36 5 6 mph 1013.5mb 58f 53f
8:30 2 6 mph 1013.5mb 58f 52f
8:24 3 6 mph 1013.4mb 58f 52f
8:18 6 7 mph 1013.4mb 58f 52f
8:12 5 6 mph 1013.3mb 59f 52f
8:06 3 6 mph 1013.3mb 59f 52f
8:00 3 5 mph 1013.3mb 59f 52f
7:54 5 6 mph 1013.3mb 59f 52f
7:48 3 6 mph 1013.3mb 59f 52f
7:42 3 5 mph 1013.3mb 59f 52f
7:36 5 6 mph 1013.3mb 59f 52f
7:30 3 5 mph 1013.3mb 59f 52f
7:24 3 5 mph 1013.3mb 59f 52f
7:18 5
mph
1013.3mb 59f 52f
7:12 3 5 mph 1013.3mb 58f 52f
7:06 2 5 mph 1013.2mb 58f 52f
7:00 1 2 mph 1013.2mb 58f 52f
6:54  -  1 mph 1013.2mb 58f 52f
6:48 1 3 mph 1013.1mb 58f 52f
6:42 2 3 mph 1013.1mb 58f 52f
6:36 3 5 mph 1013.1mb 58f 52f
6:30 5 6 mph 1013.1mb 58f 52f
6:24 1 6 mph 1013mb 58f 52f
6:18 1 6 mph 1012.9mb 58f 52f
6:12 5 6 mph 1013mb 58f 52f
6:06 3 6 mph 1013mb 59f 53f
6:00 5 7 mph 1012.9mb 59f 52f
5:54 3 6 mph 1012.9mb 59f 53f